Theta_e
333 333 333 333 333 333 332 331 331 331 331 330 328 325 321 317 315 313 312 311 310 310 309 308 306 305 303 302 301 301 300 300 299 299 299 299 299 299 299 299 299 299
332 332 332 332 333 333 332 331 331 331 330 329 327 322 317 315 313 311 310 310 309 308 307 306 304 303 302 301 301 300 299 299 299 299 299 299 299 299 299 299 299 299
332 331 331 332 333 333 332 331 330 330 329 328 326 319 314 313 311 310 309 308 307 307 305 304 302 302 301 301 300 299 299 299 299 299 299 299 299 299 299 299 299 299
331 331 331 333 333 332 332 331 330 329 328 327 325 318 312 311 310 309 308 307 306 305 303 302 301 301 301 300 299 299 299 299 299 299 299 299 299 299 299 298 298 298
330 330 332 333 333 331 331 330 329 329 327 326 324 317 311 310 309 308 307 306 304 303 302 301 301 300 300 299 298 299 299 299 299 299 299 299 299 298 298 298 298 298
330 331 332 332 331 331 330 329 328 328 326 325 323 316 310 309 308 307 305 304 303 301 300 300 300 299 299 298 298 299 299 298 298 299 299 299 298 298 298 298 297 297
331 332 332 331 331 330 329 328 328 326 324 324 321 314 309 308 307 305 304 302 301 300 300 300 299 299 298 298 298 298 298 298 298 298 298 298 298 298 297 297 297 297
332 332 332 331 330 329 328 327 327 325 323 323 319 312 308 307 305 304 302 301 300 299 299 299 298 298 298 298 298 298 298 298 298 298 298 298 298 297 297 297 297 297
332 331 330 329 329 328 328 326 325 324 323 321 317 310 308 306 303 302 301 300 299 299 299 298 298 298 298 298 298 298 298 298 298 298 298 298 297 297 297 296 296 296
331 330 329 329 328 327 326 325 324 322 321 319 314 309 307 304 301 301 300 299 299 298 298 298 298 298 298 298 298 298 298 298 298 297 297 297 297 297 296 296 296 296
330 329 329 328 327 326 325 323 322 321 320 316 311 308 305 302 300 300 299 298 298 298 298 298 298 298 298 298 298 298 298 298 297 297 297 297 296 296 296 296 296 296
329 328 327 327 325 324 323 321 320 319 318 313 309 307 303 300 299 299 298 298 298 298 298 298 297 298 298 298 298 298 298 297 297 297 297 296 296 296 296 296 295 295
328 327 326 325 324 323 322 320 318 317 314 310 307 304 301 299 298 298 298 298 298 298 298 297 297 298 298 298 298 297 297 297 297 297 296 296 296 296 296 295 295 295
327 326 324 323 322 321 320 318 317 315 311 308 306 302 299 298 298 297 298 298 298 298 297 297 298 298 297 297 297 297 297 297 296 296 296 296 295 295 295 295 295 295
325 324 323 321 320 319 317 316 315 312 309 307 303 300 298 298 298 298 298 298 298 298 297 297 297 297 297 297 297 297 297 296 296 296 296 296 295 295 295 295 295 295
323 322 320 319 318 316 315 314 312 310 307 303 300 298 297 297 297 298 298 298 298 297 297 297 297 297 297 297 297 296 296 296 296 296 295 295 295 295 295 295 295 294
321 320 318 317 317 316 314 312 310 308 304 300 298 297 296 297 297 298 298 298 298 297 297 297 297 297 297 297 296 296 296 296 296 295 295 295 295 295 295 294 294 294
319 318 317 316 316 314 312 310 308 305 301 298 297 296 296 296 297 298 298 298 298 297 297 297 297 297 296 296 296 296 296 295 295 295 295 295 295 295 295 294 294 294
317 316 316 315 314 313 310 308 306 303 299 297 296 296 296 296 297 298 298 298 297 297 297 296 296 296 296 296 296 296 295 295 295 295 295 295 295 294 294 294 294 294
316 315 315 314 313 311 309 307 305 302 298 296 296 296 296 296 297 298 298 298 298 297 297 296 296 296 296 296 295 295 295 295 295 295 295 294 294 294 294 294 294 294
315 315 314 313 311 310 308 307 305 300 297 295 296 296 296 296 297 298 298 299 298 297 297 297 296 296 295 295 295 295 295 295 295 294 294 294 294 294 294 294 294 294
315 314 312 311 310 309 308 306 303 299 296 295 295 295 296 296 297 298 298 299 299 298 297 297 296 295 295 295 295 295 295 294 294 294 294 294 294 294 294 294 294 294
314 313 311 311 309 308 307 305 303 300 297 295 295 295 296 296 297 298 298 298 298 298 297 297 296 295 295 295 295 294 294 294 294 294 294 294 294 294 294 294 294 294
313 312 311 311 309 308 307 304 303 300 297 295 295 295 295 296 297 298 299 298 298 297 298 298 297 296 295 295 295 294 294 294 294 294 294 294 294 294 294 294 294 294
313 312 311 310 308 307 306 303 302 301 297 294 295 295 295 296 297 298 298 298 298 298 298 298 296 295 295 295 295 294 294 294 294 294 294 294 294 294 294 294 294 294
312 312 311 309 307 306 305 303 303 302 298 294 294 295 296 297 298 298 298 298 298 299 298 297 296 295 295 295 295 294 294 294 294 294 294 294 294 294 294 294 294 293
Wind_Speed
14 13 13 12 11 14 13 10 8 8 8 10 11 9 5 4 6 5 4 3 2 2 3 3 3 3 3 4 6 8 9 9 11 13 13 13 15 15 16 17 18 18
14 12 12 12 12 13 12 10 9 9 9 9 9 6 3 6 6 5 3 2 2 2 2 2 2 3 3 5 7 8 9 10 12 13 12 13 15 16 17 18 17 18
13 13 13 12 13 13 13 12 11 9 8 8 7 3 4 7 6 5 3 2 2 2 2 2 2 2 4 6 7 9 9 10 12 13 12 14 15 16 17 17 17 18
14 14 13 13 15 15 14 12 10 8 7 8 6 3 6 7 6 4 3 3 2 2 1 1 1 3 5 7 8 9 9 10 13 12 11 14 16 16 17 16 17 19
13 13 14 16 17 15 12 10 8 7 8 8 6 4 7 7 5 4 3 3 2 1 1 0 2 4 6 7 8 9 9 11 13 11 11 14 15 16 16 16 17 20
12 14 17 19 17 13 11 10 8 8 8 9 7 5 7 6 5 4 3 2 2 1 1 1 3 5 7 8 9 9 11 12 12 11 12 14 15 15 16 17 18 20
14 17 19 17 14 12 11 10 8 9 9 9 7 7 8 6 5 5 4 3 2 2 1 3 4 6 9 9 9 9 11 12 12 11 12 14 14 15 17 18 19 21
16 19 18 15 14 14 12 10 9 10 10 9 7 8 8 6 6 5 4 3 2 2 2 4 6 8 10 9 9 9 11 13 12 11 12 13 14 16 18 19 20 22
17 17 16 15 15 14 12 11 10 11 10 8 8 9 9 7 7 6 5 4 3 3 4 5 7 10 11 10 9 10 11 12 12 11 12 13 15 17 19 19 20 22
18 17 17 17 16 14 13 12 12 12 9 8 9 10 9 8 7 6 5 4 3 3 5 7 9 11 12 11 11 11 11 11 11 11 12 14 16 17 18 19 20 22
19 19 18 17 15 14 14 14 13 11 10 10 11 10 9 8 8 6 5 4 4 4 6 9 11 12 12 12 12 11 10 10 10 11 13 15 16 17 18 19 20 21
20 18 17 16 16 15 15 14 13 11 11 12 11 10 9 9 8 7 6 5 5 5 7 10 12 13 12 12 12 11 10 10 10 12 13 14 15 17 18 19 20 21
18 18 18 17 17 16 15 14 13 12 12 13 12 10 9 9 9 8 7 7 6 7 9 11 13 14 13 12 11 10 9 10 11 12 13 14 15 17 18 19 20 20
19 19 18 17 17 16 15 14 13 14 14 13 12 10 10 10 9 9 9 9 8 9 11 13 13 13 13 11 10 10 9 10 11 12 13 15 16 17 18 18 19 19
20 19 18 17 17 16 15 15 15 15 15 13 12 12 12 11 11 10 10 10 11 12 13 13 13 13 12 10 9 9 10 10 12 12 13 15 16 16 17 17 18 18
20 19 18 17 16 15 15 16 16 16 15 14 13 13 13 13 13 12 11 11 12 14 14 14 13 13 12 11 9 9 10 10 11 12 13 14 15 15 16 17 17 18
19 19 18 17 16 15 15 16 16 15 14 14 14 14 14 14 14 14 13 13 13 14 15 14 14 12 12 11 10 10 10 10 11 12 13 13 13 14 15 16 17 17
19 19 18 16 15 15 16 16 15 14 14 14 15 15 15 16 16 15 15 15 15 16 15 14 13 12 12 11 10 10 10 10 10 11 11 12 13 14 15 16 16 17
20 19 17 16 16 16 16 16 14 13 14 15 15 16 16 17 17 16 16 17 17 17 16 15 13 12 12 11 10 10 9 9 10 10 10 11 12 13 14 15 16 16
20 18 18 17 17 17 17 15 14 13 14 15 15 16 17 17 18 18 17 18 18 18 17 15 13 12 12 11 10 10 9 9 9 9 10 10 11 12 13 14 15 16
20 19 19 19 19 18 17 15 14 14 15 16 16 16 17 17 18 18 18 19 19 19 18 16 14 13 12 11 11 10 9 9 8 8 9 9 10 11 13 14 14 15
20 20 21 20 20 19 16 15 14 15 15 16 17 17 17 17 18 18 19 19 19 19 18 17 15 13 12 12 11 10 9 8 7 7 8 9 9 10 12 13 13 13
20 21 21 22 21 19 16 15 14 14 15 17 17 18 18 18 19 19 19 19 19 19 18 17 15 14 13 12 11 9 8 7 6 6 7 7 8 10 11 11 11 11
21 21 21 22 21 18 17 16 15 13 14 17 17 17 18 19 19 19 19 19 20 19 17 16 15 15 14 12 10 9 8 6 5 5 6 6 7 9 9 9 10 10
22 23 22 22 21 19 18 17 15 13 14 17 17 17 18 19 19 20 21 21 20 18 16 15 15 15 14 12 10 9 7 6 5 4 4 5 7 7 7 8 8 9
24 24 25 23 21 20 18 15 12 12 14 16 18 18 19 20 20 20 21 22 20 17 16 15 14 14 13 12 10 9 7 5 4 3 3 5 6 6 5 6 7 8
Wind_Direction
205 200 201 214 225 229 230 237 248 261 275 289 299 300 282 230 205 197 203 210 237 269 283 290 304 321 337 13 29 34 40 45 50 52 49 48 48 48 47 48 47 45
192 190 199 215 220 221 224 232 242 255 274 292 304 304 253 211 199 187 184 193 232 255 266 283 307 331 6 35 40 45 51 54 57 56 53 53 52 52 52 52 51 50
182 187 200 213 219 219 221 228 239 253 275 298 309 295 221 204 192 178 170 178 224 243 254 284 319 358 35 47 49 57 63 62 60 58 55 57 58 56 57 55 54 53
184 190 201 212 216 217 221 230 243 260 285 305 311 263 212 200 184 171 176 188 219 242 255 283 357 33 47 54 62 70 71 66 64 61 58 62 62 60 59 57 55 54
192 194 203 210 211 213 222 235 250 270 289 306 308 251 209 197 182 178 188 198 211 235 248 307 38 51 62 70 78 79 72 70 70 67 63 66 67 63 62 58 55 55
196 200 203 205 208 215 229 240 254 273 289 307 304 245 207 194 187 186 194 201 204 226 225 72 61 74 83 84 85 82 77 77 78 75 69 69 69 66 64 60 57 57
200 203 202 205 213 225 236 242 256 275 289 303 289 230 203 193 190 187 192 199 202 205 162 89 85 94 93 92 90 88 87 85 83 80 73 71 71 68 66 61 58 58
203 204 205 214 226 233 237 240 256 273 284 293 266 221 199 190 192 191 191 194 194 182 130 101 104 104 100 100 99 96 95 92 88 81 75 74 73 69 66 62 59 58
207 210 217 226 229 229 231 239 257 268 276 277 246 216 200 190 189 190 189 188 181 155 119 112 116 113 111 111 107 101 97 95 91 84 78 76 73 70 67 64 60 58
214 218 222 223 223 226 233 246 257 261 262 250 224 209 199 189 184 185 184 180 169 145 125 125 125 123 122 119 112 106 100 97 93 88 82 78 74 71 69 64 61 58
215 216 216 218 224 233 241 249 253 250 242 226 212 204 196 186 182 182 179 173 164 148 137 134 131 130 128 123 117 112 105 100 97 91 84 80 76 72 69 64 59 56
211 214 219 226 233 238 242 245 244 237 224 211 203 198 191 184 182 180 176 174 167 153 147 142 138 135 131 126 121 117 111 105 98 92 85 80 77 72 67 63 58 53
218 224 229 235 238 238 239 236 230 221 211 203 196 190 187 184 182 180 176 176 171 159 153 147 142 139 135 130 126 120 115 106 97 91 85 80 76 71 66 61 57 51
226 229 233 237 237 234 230 224 218 210 203 198 191 183 182 183 184 182 178 175 171 161 154 149 146 143 139 135 131 124 116 105 97 90 85 80 75 71 67 62 57 52
228 229 230 230 228 223 218 214 210 204 198 193 186 178 179 181 182 184 183 177 168 159 153 150 148 146 141 136 131 122 113 105 98 91 84 80 77 73 70 65 60 55
227 226 223 219 217 215 213 209 204 199 192 187 181 176 179 181 180 181 184 178 169 160 155 153 151 148 143 137 130 121 112 105 97 91 86 82 79 76 73 69 64 59
221 218 213 212 212 209 208 205 199 193 187 181 178 176 179 182 181 181 180 177 172 165 160 157 154 148 144 140 133 124 114 105 97 92 89 86 82 79 74 70 67 62
215 211 208 210 208 205 204 201 194 188 184 180 180 179 180 182 182 182 180 176 174 170 164 162 157 150 146 144 137 127 117 108 100 95 91 88 83 78 75 70 66 63
210 209 208 207 204 201 200 195 189 188 185 183 182 181 182 183 182 183 181 178 177 174 169 166 161 155 151 148 141 130 121 112 105 99 92 88 83 78 74 71 67 62
208 208 206 204 201 199 196 191 188 187 187 187 185 184 185 185 183 183 182 181 179 177 174 171 166 162 157 151 143 134 125 116 106 99 92 86 81 77 74 71 67 63
207 206 202 200 198 195 193 191 187 187 188 188 188 189 189 187 186 185 183 182 182 181 181 178 172 167 160 150 143 136 128 120 108 100 93 86 80 76 73 69 65 61
206 203 199 197 195 193 192 190 187 186 189 191 190 190 189 188 188 186 185 184 183 183 184 181 177 171 159 149 143 136 128 121 112 102 93 86 81 76 71 68 63 60
204 201 198 195 194 193 190 190 190 189 191 194 194 192 190 190 189 186 186 184 181 181 183 183 179 171 158 149 144 138 132 128 118 105 94 87 83 76 70 66 62 57
205 202 199 197 197 196 190 187 189 192 195 197 197 196 193 191 189 186 183 181 180 180 182 184 180 169 158 151 147 143 140 137 124 106 97 89 81 73 67 62 56 51
204 201 199 196 197 197 193 188 185 189 197 198 198 199 195 192 190 187 181 179 181 183 183 183 178 167 158 153 150 150 150 144 130 115 104 90 78 68 60 56 49 42
202 200 198 195 195 193 191 187 184 189 199 202 199 198 197 193 190 188 184 181 183 185 181 179 178 169 161 157 156 159 158 152 145 138 119 93 78 66 53 46 38 32